Terug naar catalogus

IOD2_STARTICAL

ActiefWetenschapSSO
NORAD 64538·PAYLOAD·🇪🇸 Spain

Gelanceerd Jun 23, 2025 vanaf Vandenberg Space Force Base

Loading…

Volgende Passages (komende 24 uur)

TLE

VersSource: Space-Track

Epoch: Sep 13, 2026, 21:12 UTC

1 64538U 25135L   26256.88398641  .00003108  00000-0  14352-3 0  9990
2 64538  97.4777  10.7338 0003604 210.6290 149.4735 15.20949953 68301

Volg IOD2_STARTICAL in realtime met AllMySat

Download on the App Store